Hourly Weather Bolshie Stariki

Today, 17 June, Thursday

Time Temperature Precipitation Wind Pressure Humidity
00:00 +12°C° 0 mm 1 mps 757 mmHg 71%
01:00 +12°C° 0 mm 1 mps 757 mmHg 71%
02:00 +12°C° 0 mm 1 mps 757 mmHg 71%
03:00 +12°C° 0 mm 1 mps 757 mmHg 72%
04:00 +13°C° 0 mm 1 mps 758 mmHg 73%
05:00 +13°C° 0 mm 1 mps 758 mmHg 73%
06:00 +15°C° 0 mm 1 mps 758 mmHg 66%
07:00 +18°C° 0 mm 1 mps 758 mmHg 59%
08:00 +21°C° 0 mm 1 mps 759 mmHg 52%
09:00 +22°C° 0 mm 1 mps 759 mmHg 48%
10:00 +23°C° 0 mm 1 mps 759 mmHg 44%
11:00 +25°C° 0 mm 1 mps 759 mmHg 40%
12:00 +25°C° 0 mm 1 mps 759 mmHg 39%
13:00 +26°C° 0 mm 1 mps 759 mmHg 38%
14:00 +26°C° 0 mm 1 mps 759 mmHg 36%
15:00 +26°C° 0 mm 1 mps 759 mmHg 38%
16:00 +26°C° 0 mm 1 mps 759 mmHg 40%
17:00 +26°C° 0 mm 1 mps 759 mmHg 41%
18:00 +22°C° 0 mm 0 mps 759 mmHg 50%
19:00 +20°C° 0 mm 0 mps 759 mmHg 59%
20:00 +18°C° 0 mm 0 mps 759 mmHg 67%
21:00 +19°C° 0 mm 1 mps 759 mmHg 68%
22:00 +18°C° 0 mm 1 mps 759 mmHg 69%
23:00 +16°C° 0 mm 1 mps 759 mmHg 70%

Tomorrow, 18 June, Friday

Time Temperature Precipitation Wind Pressure Humidity
00:00 +16°C° 0 mm 1 mps 759 mmHg 71%
01:00 +15°C° 0 mm 1 mps 759 mmHg 73%
02:00 +15°C° 0 mm 2 mps 759 mmHg 74%
03:00 +15°C° 0 mm 2 mps 759 mmHg 75%
04:00 +15°C° 0 mm 1 mps 760 mmHg 76%
05:00 +16°C° 0 mm 1 mps 760 mmHg 77%
06:00 +18°C° 0 mm 2 mps 760 mmHg 70%
07:00 +20°C° 0 mm 2 mps 760 mmHg 64%
08:00 +23°C° 0 mm 2 mps 760 mmHg 57%
09:00 +25°C° 0 mm 2 mps 759 mmHg 52%
10:00 +26°C° 0 mm 2 mps 759 mmHg 47%
11:00 +27°C° 0 mm 3 mps 759 mmHg 42%
12:00 +28°C° 0 mm 3 mps 759 mmHg 40%
13:00 +29°C° 0 mm 3 mps 759 mmHg 39%
14:00 +29°C° 0 mm 3 mps 758 mmHg 37%
15:00 +29°C° 0 mm 3 mps 758 mmHg 40%
16:00 +29°C° 0 mm 2 mps 758 mmHg 43%
17:00 +29°C° 0 mm 2 mps 757 mmHg 46%
18:00 +27°C° 0 mm 2 mps 757 mmHg 55%
19:00 +25°C° 0 mm 2 mps 757 mmHg 65%
20:00 +21°C° 0 mm 2 mps 757 mmHg 74%
21:00 +20°C° 0 mm 2 mps 758 mmHg 76%
22:00 +19°C° 0 mm 2 mps 758 mmHg 79%
23:00 +18°C° 0 mm 2 mps 758 mmHg 81%

Day after tomorrow, 19 June, Saturday

Time Temperature Precipitation Wind Pressure Humidity
00:00 +17°C° 0 mm 2 mps 758 mmHg 84%
01:00 +17°C° 0 mm 2 mps 758 mmHg 88%
02:00 +16°C° 0 mm 2 mps 758 mmHg 91%
03:00 +16°C° 0 mm 2 mps 758 mmHg 89%
04:00 +17°C° 0 mm 2 mps 758 mmHg 88%
05:00 +17°C° 0 mm 2 mps 758 mmHg 87%
06:00 +19°C° 0 mm 2 mps 758 mmHg 79%
07:00 +21°C° 0 mm 2 mps 758 mmHg 71%
08:00 +24°C° 0 mm 2 mps 758 mmHg 63%
09:00 +25°C° 0 mm 3 mps 758 mmHg 57%
10:00 +27°C° 0 mm 3 mps 758 mmHg 51%
11:00 +28°C° 0 mm 3 mps 758 mmHg 45%
12:00 +29°C° 0 mm 3 mps 757 mmHg 43%
13:00 +29°C° 0 mm 3 mps 757 mmHg 40%
14:00 +30°C° 0 mm 3 mps 757 mmHg 37%
15:00 +30°C° 0 mm 3 mps 756 mmHg 40%
16:00 +30°C° 0 mm 3 mps 756 mmHg 43%
17:00 +30°C° 0 mm 2 mps 756 mmHg 45%
18:00 +27°C° 0 mm 2 mps 756 mmHg 55%
19:00 +25°C° 0 mm 2 mps 756 mmHg 65%
20:00 +23°C° 0 mm 2 mps 756 mmHg 75%
21:00 +21°C° 0 mm 2 mps 756 mmHg 78%
22:00 +20°C° 0 mm 2 mps 756 mmHg 81%
23:00 +19°C° 0 mm 2 mps 756 mmHg 84%

20 June, Sunday

Time Temperature Precipitation Wind Pressure Humidity
00:00 +18°C° 0 mm 2 mps 756 mmHg 86%
01:00 +18°C° 0 mm 2 mps 756 mmHg 89%
02:00 +17°C° 0 mm 2 mps 756 mmHg 92%
03:00 +18°C° 0 mm 2 mps 756 mmHg 91%
04:00 +18°C° 0 mm 2 mps 756 mmHg 90%
05:00 +19°C° 0 mm 2 mps 756 mmHg 89%
06:00 +20°C° 0 mm 2 mps 756 mmHg 81%
07:00 +22°C° 0 mm 3 mps 756 mmHg 73%
08:00 +25°C° 0 mm 3 mps 756 mmHg 66%
09:00 +26°C° 0 mm 3 mps 756 mmHg 60%
10:00 +27°C° 0 mm 3 mps 756 mmHg 55%
11:00 +29°C° 0 mm 3 mps 756 mmHg 50%
12:00 +29°C° 0 mm 3 mps 755 mmHg 47%
13:00 +30°C° 0 mm 3 mps 755 mmHg 44%
14:00 +31°C° 0 mm 3 mps 754 mmHg 42%
15:00 +30°C° 0 mm 3 mps 754 mmHg 47%
16:00 +29°C° 0 mm 3 mps 754 mmHg 52%
17:00 +28°C° 0 mm 4 mps 754 mmHg 57%
18:00 +27°C° 0 mm 3 mps 754 mmHg 65%
19:00 +26°C° 0 mm 3 mps 754 mmHg 73%
20:00 +24°C° 0 mm 2 mps 754 mmHg 80%
21:00 +23°C° 0.1 mm 2 mps 754 mmHg 85%
22:00 +21°C° 0.1 mm 2 mps 754 mmHg 89%
23:00 +20°C° 0.1 mm 2 mps 754 mmHg 93%

21 June, Monday

Time Temperature Precipitation Wind Pressure Humidity
00:00 +19°C° 0 mm 2 mps 755 mmHg 94%
01:00 +19°C° 0 mm 2 mps 755 mmHg 95%
02:00 +19°C° 0 mm 2 mps 755 mmHg 96%
03:00 +19°C° 0 mm 2 mps 755 mmHg 94%
04:00 +21°C° 0 mm 1 mps 755 mmHg 93%
05:00 +21°C° 0 mm 1 mps 755 mmHg 91%
06:00 +23°C° 0 mm 1 mps 755 mmHg 84%
07:00 +25°C° 0 mm 1 mps 755 mmHg 76%
08:00 +26°C° 0 mm 2 mps 755 mmHg 68%
09:00 +28°C° 0 mm 2 mps 755 mmHg 63%
10:00 +29°C° 0 mm 2 mps 755 mmHg 58%
11:00 +30°C° 0 mm 2 mps 755 mmHg 52%
12:00 +30°C° 0 mm 2 mps 755 mmHg 54%
13:00 +30°C° 0 mm 1 mps 754 mmHg 55%
14:00 +30°C° 0 mm 1 mps 754 mmHg 57%
15:00 +30°C° 0 mm 1 mps 754 mmHg 57%
16:00 +30°C° 0 mm 1 mps 754 mmHg 57%
17:00 +30°C° 0 mm 1 mps 754 mmHg 57%
18:00 +29°C° 0 mm 1 mps 754 mmHg 63%
19:00 +28°C° 0 mm 2 mps 754 mmHg 69%
20:00 +26°C° 0 mm 2 mps 754 mmHg 74%
21:00 +25°C° 0.1 mm 1 mps 754 mmHg 77%
22:00 +24°C° 0.1 mm 1 mps 754 mmHg 79%
23:00 +23°C° 0.1 mm 1 mps 755 mmHg 81%

22 June, Tuesday

Time Temperature Precipitation Wind Pressure Humidity
00:00 +22°C° 0 mm 1 mps 755 mmHg 82%
01:00 +21°C° 0 mm 1 mps 755 mmHg 83%
02:00 +21°C° 0 mm 1 mps 755 mmHg 84%
03:00 +21°C° 0 mm 1 mps 755 mmHg 84%
04:00 +21°C° 0 mm 1 mps 755 mmHg 84%
05:00 +21°C° 0 mm 1 mps 755 mmHg 84%
06:00 +23°C° 0 mm 2 mps 755 mmHg 76%
07:00 +25°C° 0 mm 2 mps 755 mmHg 68%
08:00 +27°C° 0 mm 2 mps 755 mmHg 61%
09:00 +29°C° 0 mm 3 mps 755 mmHg 55%
10:00 +30°C° 0 mm 3 mps 755 mmHg 49%
11:00 +33°C° 0 mm 3 mps 755 mmHg 43%
12:00 +34°C° 0 mm 3 mps 755 mmHg 41%
13:00 +34°C° 0 mm 3 mps 755 mmHg 39%
14:00 +35°C° 0 mm 3 mps 755 mmHg 37%
15:00 +35°C° 0 mm 3 mps 755 mmHg 40%
16:00 +34°C° 0 mm 2 mps 755 mmHg 43%
17:00 +34°C° 0 mm 2 mps 754 mmHg 45%
18:00 +31°C° 0 mm 2 mps 754 mmHg 53%
19:00 +29°C° 0 mm 2 mps 754 mmHg 61%
20:00 +27°C° 0 mm 1 mps 754 mmHg 68%
21:00 +26°C° 0 mm 1 mps 755 mmHg 70%
22:00 +25°C° 0 mm 2 mps 755 mmHg 72%
23:00 +24°C° 0 mm 2 mps 755 mmHg 74%
Show more